DateTimeUTC,F1_A11,F1_S11,BsB_S11,BsG_S11,BsR_S11,BbsB_S11,BbsG_S11,BbsR_S11,BaB_A11,BaG_A11,BaR_A11,T_S11,U_S11,P_S11,T1_A11
2020-04-20T00:00:00Z,00000380,21000600,,,,,,,,,,23.7,00.0,0653.3,30.8
2020-04-20T00:01:00Z,00000380,21000600,,,,,,,,,,23.7,00.0,0653.3,30.8
2020-04-20T00:02:00Z,00000380,21000600,,,,,,,,,,23.7,00.0,0653.3,30.8
2020-04-20T00:03:00Z,00000380,61000600,,,,,,,,,,23.7,00.0,0653.3,30.8
2020-04-20T00:04:00Z,00000380,41000600,0001.18,0000.96,0001.10,0000.40,-000.36,0000.88,-000.09,0000.13,0000.14,23.5,00.0,0654.3,30.8
2020-04-20T00:05:00Z,00000380,01000600,0000.76,0000.84,0000.64,0000.65,0000.11,0000.06,0000.12,0000.10,0000.01,23.5,00.0,0654.4,30.8
2020-04-20T00:06:00Z,00000380,01000600,0001.53,0001.24,0000.94,-000.16,-000.10,0000.30,-000.00,0000.05,-000.05,23.5,00.0,0654.3,30.8
2020-04-20T00:07:00Z,00000380,01000600,0000.78,0000.63,0000.51,0000.16,0000.21,0000.24,0000.18,0000.12,0000.23,23.4,00.0,0654.3,30.8
2020-04-20T00:08:00Z,00000380,01000600,0001.01,0000.74,0000.71,0000.39,-000.36,0000.32,0000.04,0000.07,0000.04,23.4,00.0,0654.3,30.8
2020-04-20T00:09:00Z,00000380,01000600,0001.70,0000.61,0000.56,-000.10,0000.11,0000.70,0000.06,0000.09,0000.02,23.4,00.0,0654.4,30.8
2020-04-20T00:10:00Z,00000380,01000600,0001.42,0001.08,0000.86,0000.37,0000.20,0000.29,0000.08,0000.01,0000.07,23.4,00.0,0654.4,30.8
2020-04-20T00:11:00Z,00000380,01000600,0000.27,0001.12,0000.38,-000.61,0000.40,0000.28,0000.12,0000.08,0000.02,23.4,00.0,0654.4,30.8
2020-04-20T00:12:00Z,00000380,01000600,0001.33,0001.01,0000.08,0000.76,-000.65,0000.21,0000.09,0000.14,-000.01,23.4,00.0,0654.4,30.8
2020-04-20T00:13:00Z,00000380,01000600,-000.29,0000.34,0000.47,0000.09,-000.07,0000.53,0000.00,0000.01,-000.00,23.4,00.0,0654.4,30.8
2020-04-20T00:14:00Z,00000380,01000600,0001.08,0001.17,0000.55,0000.74,-000.53,-000.20,0000.09,0000.01,0000.15,23.4,00.0,0654.4,30.8
2020-04-20T00:15:00Z,00000380,01000600,0001.59,0000.50,0000.75,0000.41,-000.11,0000.38,0000.02,0000.15,0000.01,23.4,00.0,0654.4,30.8
2020-04-20T00:16:00Z,00000380,01000600,0001.18,0000.91,0001.62,0000.97,-000.08,0000.53,0000.09,0000.07,0000.01,23.4,00.0,0654.5,30.8
2020-04-20T00:17:00Z,00000380,01000600,0001.49,0000.33,0000.92,0000.54,0000.26,0000.38,0000.12,0000.07,0000.10,23.4,00.0,0654.5,30.8
2020-04-20T00:18:00Z,00000380,01000600,0001.36,0000.49,0000.44,0000.23,-000.17,0000.60,0000.12,0000.04,0000.00,23.4,00.0,0654.5,30.8
2020-04-20T00:19:00Z,00000380,01000600,0002.05,0000.64,0000.51,0000.06,0000.14,0000.26,-000.03,0000.02,0000.16,23.4,00.0,0654.5,30.8
2020-04-20T00:20:00Z,00000380,01000600,0002.09,0001.47,0000.91,0000.93,0000.02,0000.55,0000.15,0000.05,0000.03,23.4,00.0,0654.5,30.8
2020-04-20T00:21:00Z,00000380,01000600,0002.52,0001.14,0000.09,0000.20,-000.06,0000.25,0000.01,0000.21,-000.00,23.4,00.0,0654.5,30.8
2020-04-20T00:22:00Z,00000380,01000600,0000.66,0000.77,0000.54,0000.31,0000.13,0000.01,0000.15,0000.12,0000.12,23.4,00.0,0654.5,30.8
2020-04-20T00:23:00Z,00000380,01000600,0000.99,0000.58,0000.62,-000.05,-000.32,0000.09,0000.03,-000.14,0000.06,23.4,00.0,0654.6,30.8
2020-04-20T00:24:00Z,00000380,01000600,0000.82,0000.23,0000.46,0000.46,-000.14,0000.09,0000.21,0000.14,0000.04,23.4,00.0,0654.5,30.8
2020-04-20T00:25:00Z,00000380,01000600,0000.59,0001.53,0000.59,0000.46,0000.35,0000.55,0000.02,0000.18,0000.15,23.4,00.0,0654.6,30.8
2020-04-20T00:26:00Z,00000380,01000600,0000.95,0001.00,0000.58,-000.75,-000.25,-000.09,0000.05,0000.05,-000.03,23.4,00.0,0654.6,30.8
2020-04-20T00:27:00Z,00000380,01000600,0001.17,0000.83,0000.76,-000.27,-000.26,0000.08,0000.08,-000.03,0000.03,23.4,00.0,0654.5,30.8
2020-04-20T00:28:00Z,00000380,01000600,0001.85,0001.04,0000.49,0000.23,-000.19,0000.21,0000.09,0000.10,0000.15,23.4,00.0,0654.6,30.8
2020-04-20T00:29:00Z,00000380,01000600,0000.49,0001.02,0000.35,0000.25,-000.05,0000.25,0000.01,0000.11,0000.05,23.4,00.0,0654.6,30.8
2020-04-20T00:30:00Z,00000380,01000600,0001.31,0000.74,0000.46,0000.54,-000.26,0000.40,0000.30,0000.20,0000.01,23.4,00.0,0654.6,30.8
2020-04-20T00:31:00Z,00000380,01000600,0000.33,0000.84,0000.30,0000.60,0000.16,0000.43,-000.16,-000.12,-000.00,23.4,00.0,0654.6,30.8
2020-04-20T00:32:00Z,00000380,01000600,0001.53,0000.97,0000.65,0000.51,-000.15,0000.43,0000.12,0000.15,0000.12,23.4,00.0,0654.7,30.8
2020-04-20T00:33:00Z,00000380,01000600,0000.93,0000.94,0000.87,0000.63,-000.13,-000.06,-000.05,-000.00,-000.03,23.4,00.0,0654.7,30.8
2020-04-20T00:34:00Z,00000380,01000600,0001.09,0000.89,0001.23,0000.28,0000.16,0000.58,0000.19,0000.09,0000.05,23.4,00.0,0654.7,30.8
2020-04-20T00:35:00Z,00000380,01000600,0000.60,0001.37,0000.79,0000.67,0000.36,0000.26,0000.04,0000.00,0000.02,23.4,00.0,0654.7,30.8
2020-04-20T00:36:00Z,00000380,01000600,0000.10,0001.06,0000.03,-000.18,-000.43,-000.11,0000.01,-000.02,0000.03,23.4,00.0,0654.7,30.8
2020-04-20T00:37:00Z,00000380,01000600,0001.28,0000.58,0000.48,0000.79,0000.28,0000.25,0000.26,0000.17,0000.14,23.4,00.0,0654.7,30.8
2020-04-20T00:38:00Z,00000380,01000600,0000.52,0001.14,0000.32,-000.12,0000.02,0000.24,0000.02,0000.11,0000.07,23.4,00.0,0654.7,30.8
2020-04-20T00:39:00Z,00000380,01000600,0001.50,0000.93,-000.00,0000.77,-000.27,0000.08,-000.04,0000.08,0000.03,23.4,00.0,0654.7,30.8
2020-04-20T00:40:00Z,00000380,01000600,0000.76,0000.90,0001.20,0000.15,-000.33,0000.68,0000.15,-000.01,-000.00,23.3,00.0,0654.7,30.8
2020-04-20T00:41:00Z,00000380,01000600,0000.96,0000.64,0000.22,0000.16,0000.21,0000.23,-000.02,0000.01,0000.01,23.3,00.0,0654.7,30.8
2020-04-20T00:42:00Z,00000380,01000600,0000.75,0000.59,0000.57,0000.21,0000.05,0000.14,0000.16,0000.19,0000.10,23.3,00.0,0654.8,30.8
2020-04-20T00:43:00Z,00000380,01000600,0000.99,0001.40,0000.22,0001.20,0000.38,0000.31,-000.05,-000.02,-000.00,23.3,00.0,0654.8,30.8
2020-04-20T00:44:00Z,00000380,01000600,0001.56,0001.00,0000.59,0000.94,0000.27,-000.03,0000.13,-000.01,0000.02,23.3,00.0,0654.8,30.8
2020-04-20T00:45:00Z,00000380,01000600,0001.18,0000.87,0000.35,0000.32,-000.05,0000.30,-000.00,0000.03,0000.08,23.3,00.0,0654.9,30.8
2020-04-20T00:46:00Z,00000380,01000600,0001.81,0000.96,0000.57,0001.12,-000.07,0000.29,0000.10,0000.05,-000.09,23.3,00.0,0654.9,30.8
2020-04-20T00:47:00Z,00000380,01000600,0002.40,0000.47,0001.04,0000.84,-000.29,0000.23,0000.05,-000.10,0000.05,23.3,00.0,0654.9,30.8
2020-04-20T00:48:00Z,00000380,01000600,0001.12,0001.21,0000.92,0000.63,-000.15,0000.52,0000.11,0000.18,-000.01,23.3,00.0,0655.0,30.8
2020-04-20T00:49:00Z,00000380,01000600,0001.16,0000.71,0000.89,0000.22,0000.17,0000.06,0000.05,0000.06,0000.11,23.3,00.0,0655.0,30.8
2020-04-20T00:50:00Z,00000380,01000600,0000.74,0001.14,0000.79,0000.42,-000.32,0000.25,0000.03,0000.10,0000.02,23.3,00.0,0655.0,30.8
2020-04-20T00:51:00Z,00000380,01000600,0001.85,0000.94,0000.99,0000.63,0000.13,0000.38,0000.02,0000.03,0000.05,23.3,00.0,0655.0,30.8
2020-04-20T00:52:00Z,00000380,01000600,0000.63,0000.80,0000.70,0001.11,0000.05,0000.14,0000.10,0000.05,0000.11,23.3,00.0,0655.0,30.8
2020-04-20T00:53:00Z,00000380,01000600,0000.86,0001.21,0000.97,-000.35,-000.39,0000.02,0000.16,0000.07,-000.01,23.3,00.0,0655.0,30.8
2020-04-20T00:54:00Z,00000380,01000600,0001.61,0001.49,0000.83,0000.26,0000.08,0000.24,-000.03,0000.09,0000.05,23.3,00.0,0655.1,30.8
2020-04-20T00:55:00Z,00000380,01000600,0000.45,0001.61,0000.56,0000.20,-000.24,0000.49,0000.11,0000.04,0000.05,23.3,00.0,0655.0,30.8
2020-04-20T00:56:00Z,00000380,01000600,0000.26,0000.90,0000.38,0000.72,-000.34,0000.35,0000.01,0000.02,-000.02,23.3,00.0,0655.0,30.8
2020-04-20T00:57:00Z,00000380,41000600,,,,,,,,,,23.3,00.0,0655.0,30.8
2020-04-20T00:58:00Z,00000380,61000600,,,,,,,,,,23.4,00.0,0654.1,30.8
2020-04-20T00:59:00Z,00000380,21000600,,,,,,,,,,23.5,00.0,0654.0,30.8
2020-04-20T01:00:00Z,00000380,21000600,,,,,,,,,,23.5,00.0,0654.0,30.8
2020-04-20T01:01:00Z,00000380,21000600,,,,,,,,,,23.5,00.0,0654.0,30.8
2020-04-20T01:02:00Z,00000380,21000600,,,,,,,,,,23.5,00.0,0654.0,30.8
2020-04-20T01:03:00Z,00000380,61000600,,,,,,,,,,23.6,00.0,0654.0,30.8
2020-04-20T01:04:00Z,00000380,41000600,0001.45,0001.00,0000.53,-000.50,0000.47,0000.21,0000.08,0000.19,-000.02,23.4,00.0,0654.9,30.8
2020-04-20T01:05:00Z,00000380,01000600,0001.94,0000.49,0001.01,-000.34,-000.08,0000.11,0000.02,-000.09,-000.02,23.4,00.0,0655.0,30.8
2020-04-20T01:06:00Z,00000380,01000600,0001.74,0001.01,0000.23,-000.21,0000.24,0000.59,0000.05,0000.07,0000.04,23.3,00.0,0655.0,30.8
2020-04-20T01:07:00Z,00000380,01000600,0001.64,0000.77,0000.54,-000.36,0000.55,0000.06,0000.17,0000.09,0000.11,23.3,00.0,0655.0,30.8
2020-04-20T01:08:00Z,00000380,01000600,0000.33,0001.33,0000.55,0000.29,0000.30,0000.08,-000.02,0000.19,0000.15,23.3,00.0,0655.0,30.8
2020-04-20T01:09:00Z,00000380,01000600,0001.28,0000.63,0000.31,0000.02,0000.43,0000.53,0000.29,0000.13,0000.04,23.3,00.0,0654.9,30.8
2020-04-20T01:10:00Z,00000380,01000600,-000.28,0001.23,0000.93,-000.29,-000.11,0000.62,0000.07,0000.15,0000.17,23.3,00.0,0654.9,30.8
2020-04-20T01:11:00Z,00000380,01000600,0002.40,0000.41,0000.73,-000.63,0000.18,0000.43,0000.10,-000.09,0000.10,23.3,00.0,0654.9,30.8
2020-04-20T01:12:00Z,00000380,01000600,0001.85,0000.76,0000.90,-000.31,0000.35,0000.07,0000.07,0000.19,-000.03,23.3,00.0,0655.0,30.8
2020-04-20T01:13:00Z,00000380,01000600,0001.20,0000.95,0000.67,-000.47,0000.15,0000.32,-000.10,-000.11,-000.03,23.3,00.0,0655.0,30.8
2020-04-20T01:14:00Z,00000380,01000600,0001.87,0001.28,0000.72,0000.70,0000.43,0000.02,0000.05,0000.08,0000.05,23.3,00.0,0655.0,30.8
2020-04-20T01:15:00Z,00000380,01000600,0001.69,0001.03,0000.59,-000.20,0000.02,0000.09,0000.08,-000.00,0000.13,23.3,00.0,0655.0,30.8
2020-04-20T01:16:00Z,00000380,01000600,0001.41,0001.26,0000.54,-000.03,0000.15,0000.05,-000.04,0000.16,0000.02,23.3,00.0,0655.0,30.8
2020-04-20T01:17:00Z,00000380,01000600,-000.52,0000.89,0000.56,-000.32,0000.09,0000.36,0000.22,0000.09,-000.06,23.3,00.0,0655.0,30.8
2020-04-20T01:18:00Z,00000380,01000600,0001.43,0000.90,0000.84,-000.28,-000.01,0000.58,-000.06,-000.04,0000.12,23.3,00.0,0655.0,30.8
2020-04-20T01:19:00Z,00000380,01000600,0001.52,0000.98,0000.69,0000.52,-000.11,0000.28,0000.13,0000.09,-000.08,23.2,00.0,0655.1,30.8
2020-04-20T01:20:00Z,00000380,01000600,-000.03,0001.01,0000.59,-000.47,-000.03,0000.03,0000.05,0000.06,0000.21,23.2,00.0,0655.1,30.8
2020-04-20T01:21:00Z,00000380,01000600,0002.25,0000.53,0000.85,-000.85,0000.29,0000.36,0000.07,-000.07,-000.09,23.2,00.0,0655.1,30.8
2020-04-20T01:22:00Z,00000380,01000600,0001.25,0001.37,0000.49,-000.60,-000.43,0000.14,0000.02,0000.06,0000.05,23.2,00.0,0655.1,30.8
2020-04-20T01:23:00Z,00000380,01000600,0001.51,0000.96,0000.32,0000.53,0000.35,0000.12,-000.04,0000.03,-000.05,23.2,00.0,0655.2,30.8
2020-04-20T01:24:00Z,00000380,01000600,0001.00,0001.05,0000.83,-000.09,0000.51,0000.09,0000.08,-000.12,0000.04,23.2,00.0,0655.2,30.8
2020-04-20T01:25:00Z,00000380,01000600,0000.38,0000.81,0000.83,0000.05,0000.09,0000.49,0000.17,0000.18,0000.05,23.2,00.0,0655.2,30.8
2020-04-20T01:26:00Z,00000380,01000600,0001.75,0001.16,0000.92,-001.30,0000.08,0000.28,0000.02,0000.14,0000.12,23.2,00.0,0655.2,30.8
2020-04-20T01:27:00Z,00000380,01000600,0001.55,0001.03,0000.86,-000.73,-000.03,0000.08,0000.03,-000.15,-000.07,23.2,00.0,0655.3,30.8
2020-04-20T01:28:00Z,00000380,01000600,0001.60,0000.95,0000.23,0000.08,-000.22,-000.06,0000.09,0000.04,-000.03,23.2,00.0,0655.3,30.8
2020-04-20T01:29:00Z,00000380,01000600,0002.32,0001.52,0000.17,-001.04,0000.54,0000.43,-000.08,0000.24,0000.07,23.2,00.0,0655.4,30.8
2020-04-20T01:30:00Z,00000380,01000600,0001.69,0001.02,0000.88,-000.20,0000.02,0000.22,0000.23,0000.02,0000.08,23.2,00.0,0655.4,30.8
2020-04-20T01:31:00Z,00000380,01000600,0001.01,0001.30,0000.88,-000.14,0000.01,-000.41,-000.10,0000.00,-000.07,23.2,00.0,0655.4,30.8
2020-04-20T01:32:00Z,00000380,01000600,0002.62,0000.77,0000.33,0000.12,0000.43,0000.22,0000.06,0000.06,-000.09,23.1,00.0,0655.5,30.8
2020-04-20T01:33:00Z,00000380,01000600,0001.52,0000.97,0000.84,0000.11,0000.37,0000.26,0000.09,0000.02,0000.19,23.1,00.0,0655.5,30.8
2020-04-20T01:34:00Z,00000380,01000600,0001.11,0000.86,0000.78,-000.16,0000.03,0000.28,-000.01,0000.05,0000.06,23.2,00.0,0655.5,30.8
2020-04-20T01:35:00Z,00000380,01000600,0000.43,0001.36,0000.96,0000.21,-000.09,0000.24,0000.15,-000.02,0000.13,23.1,00.0,0655.5,30.8
2020-04-20T01:36:00Z,00000380,01000600,0001.74,0001.66,0000.55,-000.23,-000.29,0000.24,0000.12,0000.11,-000.02,23.1,00.0,0655.6,30.8
2020-04-20T01:37:00Z,00000380,01000600,0000.79,0001.17,0000.59,-000.44,0000.18,0000.05,-000.01,0000.20,-000.04,23.1,00.0,0655.6,30.8
2020-04-20T01:38:00Z,00000380,01000600,0002.91,0001.08,0000.66,-000.99,0000.24,0000.36,0000.18,0000.03,0000.12,23.1,00.0,0655.6,30.8
2020-04-20T01:39:00Z,00000380,01000600,0001.29,0001.11,0000.88,-001.18,0000.14,0000.37,0000.02,0000.01,0000.05,23.1,00.0,0655.6,30.8
2020-04-20T01:40:00Z,00000380,01000600,0001.98,0000.71,0000.87,-000.77,0000.19,0000.13,0000.24,0000.23,0000.15,23.1,00.0,0655.6,30.8
2020-04-20T01:41:00Z,00000380,01000600,0001.92,0001.53,0000.15,-000.26,-000.10,0000.25,0000.16,0000.16,0000.19,23.1,00.0,0655.5,30.8
2020-04-20T01:42:00Z,00000380,01000600,0002.04,0001.34,0000.65,-000.13,0000.13,0000.17,0000.04,0000.19,0000.23,23.1,00.0,0655.5,30.8
2020-04-20T01:43:00Z,00000380,01000600,0000.32,0000.81,0000.87,-000.97,0000.06,0000.43,0000.00,-000.00,-000.13,23.1,00.0,0655.6,30.8
2020-04-20T01:44:00Z,00000380,01000600,0001.44,0000.43,0000.48,-001.22,0000.22,0000.35,-000.07,-000.25,-000.10,23.1,00.0,0655.6,30.8
2020-04-20T01:45:00Z,00000380,01000600,0000.81,0001.08,0001.35,-001.00,0000.14,0000.53,0000.06,0000.22,0000.05,23.1,00.0,0655.7,30.8
2020-04-20T01:46:00Z,00000380,01000600,0001.87,0000.89,0000.93,0001.24,0000.32,0000.01,0000.05,-000.07,-000.05,23.1,00.0,0655.7,30.8
2020-04-20T01:47:00Z,00000380,01000600,0001.00,0001.05,0000.71,0000.28,0000.14,0000.43,0000.03,0000.09,0000.13,23.1,00.0,0655.7,30.8
2020-04-20T01:48:00Z,00000380,01000600,-000.36,0001.61,0001.03,0000.06,0000.21,0000.44,0000.13,0000.14,0000.10,23.1,00.0,0655.8,30.8
2020-04-20T01:49:00Z,00000380,01000600,0002.91,0001.05,0001.17,-000.33,-000.04,0000.01,0000.01,0000.12,-000.05,23.1,00.0,0655.8,30.8
2020-04-20T01:50:00Z,00000380,01000600,-000.23,0000.68,0000.59,0000.23,-000.18,0000.48,0000.17,0000.06,0000.14,23.1,00.0,0655.8,30.8
2020-04-20T01:51:00Z,00000380,01000600,0001.99,0000.90,0000.68,0000.47,-000.02,0000.40,0000.08,0000.04,0000.10,23.1,00.0,0655.8,30.8
2020-04-20T01:52:00Z,00000380,01000600,0001.83,0001.33,0000.57,-000.50,0000.19,-000.11,0000.24,0000.09,0000.06,23.1,00.0,0655.8,30.8
2020-04-20T01:53:00Z,00000380,01000600,0000.44,0000.95,0000.78,-000.55,0000.54,0000.65,-000.08,0000.08,-000.01,23.1,00.0,0655.8,30.8
2020-04-20T01:54:00Z,00000380,01000600,0002.14,0001.00,0000.78,-000.84,0000.43,0000.09,0000.24,0000.02,0000.20,23.1,00.0,0655.8,30.8
2020-04-20T01:55:00Z,00000380,01000600,0000.99,0001.31,0000.66,-000.39,0000.06,0000.59,-000.01,0000.05,-000.08,23.1,00.0,0655.8,30.8
2020-04-20T01:56:00Z,00000380,01000600,0002.20,0000.72,0000.69,0000.50,0000.13,0000.53,0000.21,0000.20,0000.05,23.1,00.0,0655.8,30.8
2020-04-20T01:57:00Z,00000380,41000600,,,,,,,,,,23.1,00.0,0655.7,30.8
2020-04-20T01:58:00Z,00000380,61000600,,,,,,,,,,23.2,00.0,0654.9,30.8
2020-04-20T01:59:00Z,00000380,21000600,,,,,,,,,,23.3,00.0,0654.9,30.8
2020-04-20T02:00:00Z,00000380,21000600,,,,,,,,,,23.3,00.0,0654.8,30.8
2020-04-20T02:01:00Z,00000380,21000600,,,,,,,,,,23.4,00.0,0654.8,30.8
2020-04-20T02:02:00Z,00000380,21000600,,,,,,,,,,23.4,00.0,0654.8,30.8
2020-04-20T02:03:00Z,00000380,61000600,,,,,,,,,,23.4,00.0,0654.9,30.8
2020-04-20T02:04:00Z,00000380,41000600,0001.06,0001.55,0001.36,-000.32,0000.20,0000.64,0000.22,0000.06,-000.04,23.2,00.0,0655.7,30.8
2020-04-20T02:05:00Z,00000380,01000600,0000.95,0000.90,0001.10,0000.10,-000.17,0000.19,-000.02,0000.10,-000.05,23.2,00.0,0655.8,30.8
2020-04-20T02:06:00Z,00000380,01000600,0001.41,0001.25,0000.90,0000.03,0000.04,0000.35,0000.08,0000.04,0000.10,23.1,00.0,0655.8,30.8
2020-04-20T02:07:00Z,00000380,01000600,0001.19,0000.83,0000.85,-000.77,0000.06,0000.23,0000.22,0000.15,0000.30,23.1,00.0,0655.9,30.8
2020-04-20T02:08:00Z,00000380,01000600,0001.74,0000.19,0001.41,0000.45,0000.21,0000.58,-000.02,0000.04,-000.17,23.1,00.0,0655.9,30.8
2020-04-20T02:09:00Z,00000380,01000600,0001.93,0000.72,0000.65,0000.06,0000.06,0000.47,0000.10,0000.21,0000.16,23.1,00.0,0655.9,30.8
2020-04-20T02:10:00Z,00000380,01000600,0000.56,0000.86,0000.74,-000.12,0000.44,-000.27,0000.09,0000.03,0000.03,23.1,00.0,0655.9,30.8
2020-04-20T02:11:00Z,00000380,01000600,0001.81,0000.88,0000.86,-000.40,0000.34,-000.09,0000.03,0000.06,0000.21,23.1,00.0,0655.9,30.8
2020-04-20T02:12:00Z,00000380,01000600,0000.75,0000.94,0000.88,0000.42,-000.10,0000.13,0000.14,0000.22,-000.11,23.1,00.0,0655.9,30.8
2020-04-20T02:13:00Z,00000380,01000600,0002.14,0000.76,0000.90,0000.72,0000.13,0000.37,0000.10,-000.03,0000.08,23.1,00.0,0656.0,30.8
2020-04-20T02:14:00Z,00000380,01000600,0001.04,0000.61,0000.89,-000.74,0000.12,0000.37,-000.01,-000.19,0000.02,23.1,00.0,0656.0,30.8
2020-04-20T02:15:00Z,00000380,01000600,0001.54,0000.94,0000.72,-000.26,0000.37,0000.26,0000.17,0000.29,0000.03,23.1,00.0,0656.0,30.8
2020-04-20T02:16:00Z,00000380,01000600,-000.06,0000.74,0000.63,-000.27,0000.44,-000.00,0000.05,-000.03,0000.10,23.0,00.0,0656.0,30.8
2020-04-20T02:17:00Z,00000380,01000600,0000.92,0000.85,0000.91,-000.42,0000.23,0000.26,0000.07,0000.25,-000.05,23.1,00.0,0656.1,30.8
2020-04-20T02:18:00Z,00000380,01000600,0001.57,0001.27,0000.75,-000.84,0000.10,0000.42,0000.04,-000.02,0000.09,23.1,00.0,0656.1,30.8
2020-04-20T02:19:00Z,00000380,01000600,0001.50,0001.10,0001.14,0000.35,0000.39,0000.15,0000.06,-000.12,0000.10,23.0,00.0,0656.1,30.8
2020-04-20T02:20:00Z,00000380,01000600,0001.39,0000.74,0001.67,0000.26,0000.22,0000.37,-000.02,0000.02,-000.12,23.0,00.0,0656.2,30.8
2020-04-20T02:21:00Z,00000380,01000600,0000.93,0000.78,0000.89,0000.29,0000.25,-000.08,-000.13,0000.04,-000.06,23.0,00.0,0656.3,30.8
2020-04-20T02:22:00Z,00000380,01000600,0001.99,0001.17,0000.65,-001.24,-000.10,0000.14,0000.03,-000.16,-000.21,23.0,00.0,0656.3,30.8
2020-04-20T02:23:00Z,00000380,01000600,0001.36,0000.73,0000.65,-000.41,0000.04,-000.09,-000.16,-000.01,-000.16,23.0,00.0,0656.4,30.8
2020-04-20T02:24:00Z,00000380,01000600,0001.39,0000.37,0000.76,-000.65,0000.19,0000.42,0000.14,-000.05,0000.16,23.0,00.0,0656.4,30.8
2020-04-20T02:25:00Z,00000380,01000600,0000.86,0001.31,0001.14,0000.52,0000.23,0000.16,0000.09,0000.18,-000.01,23.0,00.0,0656.4,30.8
2020-04-20T02:26:00Z,00000380,01000600,0001.81,0001.30,0000.90,-000.33,-000.22,0000.03,0000.48,0000.56,0000.45,23.0,00.0,0656.3,30.8
2020-04-20T02:27:00Z,00000380,01000600,0000.33,0000.95,0001.71,-000.06,0000.12,0000.18,0000.32,0000.12,0000.24,23.0,00.0,0656.3,30.8
2020-04-20T02:28:00Z,00000380,01000600,0001.06,0000.70,0000.99,0000.00,0000.37,0000.25,0000.14,0000.25,0000.22,23.0,00.0,0656.3,30.8
2020-04-20T02:29:00Z,00000380,01000600,0001.92,0000.49,0001.25,-000.08,0000.40,0000.06,0000.28,0000.22,0000.27,23.0,00.0,0656.2,30.8
2020-04-20T02:30:00Z,00000380,01000600,0001.25,0000.59,0000.55,0000.35,0000.38,-000.18,0000.29,0000.36,0000.07,23.0,00.0,0656.1,30.8
2020-04-20T02:31:00Z,00000380,01000600,0001.82,0001.20,0001.32,0000.65,0000.11,-000.04,0000.10,0000.04,0000.18,23.0,00.0,0656.1,30.8
2020-04-20T02:32:00Z,00000380,01000600,0001.04,0001.30,0001.36,0000.45,0000.30,0000.40,0000.08,0000.22,0000.11,23.0,00.0,0656.1,30.8
2020-04-20T02:33:00Z,00000380,01000600,0001.46,0000.74,0000.53,-000.44,0000.17,0000.43,0000.11,0000.04,0000.04,22.9,00.0,0656.1,30.8
2020-04-20T02:34:00Z,00000380,01000600,0001.73,0000.84,0001.10,0000.31,0000.18,0000.48,0000.12,0000.22,0000.18,23.0,00.0,0656.1,30.8
2020-04-20T02:35:00Z,00000380,01000600,0001.35,0000.27,0001.15,-000.84,0000.19,0000.09,0000.09,-000.05,0000.09,22.9,00.0,0656.2,30.8
2020-04-20T02:36:00Z,00000380,01000600,0002.11,0000.81,0001.41,0000.18,0000.10,-000.04,-000.03,0000.06,-000.06,22.9,00.0,0656.3,30.8
2020-04-20T02:37:00Z,00000380,01000600,0001.96,0001.25,0001.27,-000.18,0000.56,0000.53,0000.09,-000.17,-000.17,22.9,00.0,0656.4,30.8
2020-04-20T02:38:00Z,00000380,01000600,0002.35,0001.04,0001.17,0000.47,0000.43,0000.35,-000.11,0000.01,-000.07,22.9,00.0,0656.4,30.8
2020-04-20T02:39:00Z,00000380,01000600,0001.30,0000.40,0001.28,0000.20,0000.44,0000.11,-000.13,-000.04,-000.05,22.9,00.0,0656.5,30.8
2020-04-20T02:40:00Z,00000380,01000600,0000.99,0001.05,0000.80,-000.67,0000.01,0000.30,-000.03,-000.14,-000.10,22.9,00.0,0656.5,30.8
2020-04-20T02:41:00Z,00000380,01000600,0001.94,0001.74,0001.01,0000.31,0000.19,-000.33,0000.12,0000.16,0000.01,22.9,00.0,0656.5,30.8
2020-04-20T02:42:00Z,00000380,01000600,0001.85,0000.42,0000.77,0000.64,0000.38,0000.28,0000.15,0000.01,0000.10,22.9,00.0,0656.5,30.8
2020-04-20T02:43:00Z,00000380,01000600,0001.97,0000.23,0001.42,-000.78,0000.13,0000.20,-000.12,-000.08,-000.08,22.9,00.0,0656.5,30.8
2020-04-20T02:44:00Z,00000380,01000600,0001.65,0000.54,0001.13,-000.26,-000.42,-000.12,0000.15,0000.33,0000.08,22.9,00.0,0656.6,30.8
2020-04-20T02:45:00Z,00000380,01000600,0002.03,0001.35,0001.57,-000.16,-000.03,0000.08,0000.05,0000.09,0000.17,22.9,00.0,0656.6,30.8
2020-04-20T02:46:00Z,00000380,01000600,0000.82,0000.89,0001.15,-000.13,0000.14,-000.38,0000.09,-000.15,-000.17,22.9,00.0,0656.6,30.8
2020-04-20T02:47:00Z,00000380,01000600,0000.53,0001.24,0001.47,0000.47,0000.06,-000.16,0000.30,0000.19,0000.23,22.9,00.0,0656.6,30.8
2020-04-20T02:48:00Z,00000380,01000600,0000.60,0000.52,0000.61,0000.27,0000.28,-000.05,0000.04,0000.25,0000.11,22.9,00.0,0656.7,30.8
2020-04-20T02:49:00Z,00000380,01000600,0001.47,0000.73,0000.71,0000.23,-000.03,0000.02,0000.04,-000.06,0000.04,22.9,00.0,0656.7,30.8
2020-04-20T02:50:00Z,00000380,01000600,0001.52,0000.80,0000.21,-000.30,0000.25,-000.28,0000.03,0000.20,-000.05,22.9,00.0,0656.8,30.8
2020-04-20T02:51:00Z,00000380,01000600,0001.05,0000.94,0000.96,0000.74,-000.18,-000.31,0000.04,-000.01,0000.02,22.9,00.0,0656.8,30.8
2020-04-20T02:52:00Z,00000380,01000600,0002.20,0000.84,0001.59,-000.31,-000.04,0000.29,0000.24,0000.09,0000.26,22.9,00.0,0656.7,30.8
2020-04-20T02:53:00Z,00000380,01000600,0002.06,0000.69,0000.77,-000.11,0000.32,-000.03,-000.01,0000.04,-000.02,22.9,00.0,0656.7,30.8
2020-04-20T02:54:00Z,00000380,01000600,0002.58,0001.17,0000.93,-000.44,0000.45,0000.31,0000.21,0000.19,0000.12,22.9,00.0,0656.8,30.8
2020-04-20T02:55:00Z,00000380,01000600,0001.49,0001.50,0001.04,0000.43,0000.36,0000.25,0000.11,0000.01,0000.02,22.9,00.0,0656.8,30.8
2020-04-20T02:56:00Z,00000380,01000600,0002.87,0000.38,0000.78,0000.80,0000.49,0000.10,-000.00,0000.13,0000.05,22.9,00.0,0656.8,30.8
2020-04-20T02:57:00Z,00000380,41000600,,,,,,,,,,23.0,00.0,0656.8,30.8
2020-04-20T02:58:00Z,00000380,61000600,,,,,,,,,,23.0,00.0,0655.9,30.8
2020-04-20T02:59:00Z,00000380,21000600,,,,,,,,,,23.1,00.0,0655.9,30.8
2020-04-20T03:00:00Z,00000380,21000600,,,,,,,,,,23.2,00.0,0655.9,30.8
2020-04-20T03:01:00Z,00000380,21000600,,,,,,,,,,23.2,00.0,0655.9,30.8
2020-04-20T03:02:00Z,00000380,21000600,,,,,,,,,,23.2,00.0,0655.9,30.8
2020-04-20T03:03:00Z,00000380,61000600,,,,,,,,,,23.2,00.0,0656.0,30.8
2020-04-20T03:04:00Z,00000380,41000600,0001.08,0000.89,-000.02,0001.01,0000.05,-000.32,-000.04,-000.06,-000.08,23.0,00.0,0657.0,30.8
2020-04-20T03:05:00Z,00000380,01000600,0000.71,0001.02,0000.42,0000.76,0000.05,0000.16,0000.15,0000.07,0000.06,22.9,00.0,0657.1,30.8
2020-04-20T03:06:00Z,00000380,01000600,0001.84,0000.32,0000.31,0000.05,-000.02,0000.21,0000.32,0000.33,0000.32,22.9,00.0,0657.0,30.8
2020-04-20T03:07:00Z,00000380,01000600,0001.77,0001.34,0001.00,-000.86,-000.39,0000.35,0000.35,0000.32,0000.23,22.9,00.0,0657.0,30.7
2020-04-20T03:08:00Z,00000380,01000600,0002.10,0001.00,0000.57,-000.21,0000.22,0000.03,0000.11,0000.24,0000.32,22.9,00.0,0657.0,30.7
2020-04-20T03:09:00Z,00000380,01000600,0001.80,0001.19,0000.56,-000.29,-000.09,0000.31,0000.23,-000.02,-000.18,22.9,00.0,0657.0,30.7
2020-04-20T03:10:00Z,00000380,01000600,0001.23,0001.72,0000.44,0001.15,-000.02,-000.01,0000.08,0000.29,0000.31,22.9,00.0,0656.9,30.7